• In Hungary
  • List of Countries
  • For 7 days
  • Water Temperature
  • Satellite Maps
  • Weather Map
  • News
  • Weather Widgets
  • user-avatar
    Login

    Hourly Weather Sleza

    Today, 19 September, Wednesday

    Time Temperature Precipitation Wind Pressure Humidity
    00:00 +20°C° 0 mm 4 mps 752 mmHg 63%
    01:00 +19°C° 0 mm 4 mps 752 mmHg 63%
    02:00 +19°C° 0 mm 3 mps 752 mmHg 63%
    03:00 +19°C° 0 mm 3 mps 752 mmHg 63%
    04:00 +18°C° 0 mm 3 mps 752 mmHg 64%
    05:00 +19°C° 0 mm 3 mps 753 mmHg 64%
    06:00 +19°C° 0 mm 3 mps 753 mmHg 65%
    07:00 +19°C° 0 mm 2 mps 753 mmHg 66%
    08:00 +21°C° 0 mm 2 mps 753 mmHg 61%
    09:00 +24°C° 0 mm 2 mps 753 mmHg 56%
    10:00 +26°C° 0 mm 2 mps 753 mmHg 51%
    11:00 +27°C° 0 mm 2 mps 753 mmHg 49%
    12:00 +28°C° 0 mm 2 mps 753 mmHg 47%
    13:00 +29°C° 0 mm 2 mps 753 mmHg 46%
    14:00 +29°C° 0 mm 2 mps 753 mmHg 47%
    15:00 +29°C° 0 mm 1 mps 753 mmHg 48%
    16:00 +28°C° 0 mm 1 mps 753 mmHg 50%
    17:00 +27°C° 0 mm 1 mps 753 mmHg 55%
    18:00 +25°C° 0 mm 1 mps 753 mmHg 60%
    19:00 +23°C° 0 mm 2 mps 753 mmHg 64%
    20:00 +23°C° 0 mm 2 mps 753 mmHg 67%
    21:00 +21°C° 0 mm 2 mps 753 mmHg 69%
    22:00 +21°C° 0 mm 2 mps 754 mmHg 71%
    23:00 +20°C° 0 mm 2 mps 753 mmHg 72%

    Tomorrow, 20 September, Thursday

    Time Temperature Precipitation Wind Pressure Humidity
    00:00 +20°C° 0 mm 2 mps 753 mmHg 74%
    01:00 +19°C° 0 mm 2 mps 753 mmHg 75%
    02:00 +19°C° 0 mm 2 mps 753 mmHg 76%
    03:00 +19°C° 0 mm 2 mps 753 mmHg 77%
    04:00 +19°C° 0 mm 2 mps 753 mmHg 79%
    05:00 +19°C° 0 mm 2 mps 753 mmHg 78%
    06:00 +19°C° 0 mm 2 mps 753 mmHg 77%
    07:00 +20°C° 0 mm 2 mps 754 mmHg 76%
    08:00 +23°C° 0 mm 2 mps 754 mmHg 69%
    09:00 +25°C° 0 mm 2 mps 754 mmHg 62%
    10:00 +27°C° 0 mm 2 mps 754 mmHg 55%
    11:00 +28°C° 0 mm 2 mps 753 mmHg 52%
    12:00 +29°C° 0 mm 2 mps 753 mmHg 49%
    13:00 +30°C° 0 mm 2 mps 753 mmHg 45%
    14:00 +30°C° 0 mm 1 mps 753 mmHg 45%
    15:00 +30°C° 0 mm 1 mps 753 mmHg 46%
    16:00 +30°C° 0 mm 1 mps 752 mmHg 46%
    17:00 +28°C° 0 mm 1 mps 752 mmHg 51%
    18:00 +26°C° 0 mm 1 mps 752 mmHg 56%
    19:00 +24°C° 0 mm 1 mps 752 mmHg 61%
    20:00 +24°C° 0 mm 1 mps 752 mmHg 63%
    21:00 +23°C° 0 mm 2 mps 752 mmHg 65%
    22:00 +21°C° 0 mm 2 mps 752 mmHg 67%
    23:00 +21°C° 0 mm 2 mps 752 mmHg 69%

    Day after tomorrow, 21 September, Friday

    Time Temperature Precipitation Wind Pressure Humidity
    00:00 +21°C° 0 mm 2 mps 752 mmHg 70%
    01:00 +20°C° 0 mm 2 mps 751 mmHg 72%
    02:00 +20°C° 0 mm 2 mps 751 mmHg 73%
    03:00 +20°C° 0 mm 2 mps 751 mmHg 75%
    04:00 +19°C° 0 mm 2 mps 750 mmHg 76%
    05:00 +20°C° 0 mm 3 mps 750 mmHg 74%
    06:00 +20°C° 0 mm 3 mps 750 mmHg 73%
    07:00 +20°C° 0 mm 3 mps 750 mmHg 71%
    08:00 +22°C° 0 mm 4 mps 749 mmHg 63%
    09:00 +25°C° 0 mm 4 mps 749 mmHg 55%
    10:00 +27°C° 0 mm 5 mps 749 mmHg 47%
    11:00 +28°C° 0 mm 6 mps 748 mmHg 44%
    12:00 +29°C° 0 mm 6 mps 748 mmHg 41%
    13:00 +30°C° 0 mm 7 mps 747 mmHg 38%
    14:00 +30°C° 0 mm 6 mps 747 mmHg 39%
    15:00 +29°C° 0 mm 6 mps 746 mmHg 41%
    16:00 +29°C° 0 mm 6 mps 745 mmHg 43%
    17:00 +27°C° 0 mm 6 mps 745 mmHg 44%
    18:00 +26°C° 0 mm 5 mps 744 mmHg 46%
    19:00 +25°C° 0 mm 5 mps 744 mmHg 48%
    20:00 +24°C° 0 mm 6 mps 744 mmHg 47%
    21:00 +24°C° 0 mm 6 mps 744 mmHg 46%
    22:00 +24°C° 0 mm 6 mps 744 mmHg 44%
    23:00 +21°C° 0.4 mm 7 mps 745 mmHg 55%

    22 September, Saturday

    Time Temperature Precipitation Wind Pressure Humidity
    00:00 +17°C° 0.4 mm 8 mps 746 mmHg 66%
    01:00 +13°C° 0.4 mm 9 mps 747 mmHg 76%
    02:00 +13°C° 1.2 mm 8 mps 748 mmHg 76%
    03:00 +12°C° 1.2 mm 7 mps 750 mmHg 76%
    04:00 +11°C° 1.2 mm 6 mps 751 mmHg 77%
    05:00 +12°C° 0 mm 5 mps 751 mmHg 75%
    06:00 +12°C° 0 mm 5 mps 752 mmHg 73%
    07:00 +12°C° 0 mm 5 mps 752 mmHg 71%
    08:00 +12°C° 0 mm 5 mps 753 mmHg 67%
    09:00 +13°C° 0 mm 6 mps 753 mmHg 64%
    10:00 +12°C° 0 mm 7 mps 753 mmHg 61%
    11:00 +14°C° 0 mm 7 mps 753 mmHg 56%
    12:00 +15°C° 0 mm 7 mps 753 mmHg 52%
    13:00 +16°C° 0 mm 7 mps 753 mmHg 48%
    14:00 +16°C° 0 mm 6 mps 753 mmHg 47%
    15:00 +16°C° 0 mm 6 mps 753 mmHg 47%
    16:00 +16°C° 0 mm 6 mps 753 mmHg 46%
    17:00 +15°C° 0 mm 5 mps 753 mmHg 50%
    18:00 +14°C° 0 mm 4 mps 753 mmHg 54%
    19:00 +12°C° 0 mm 3 mps 754 mmHg 58%
    20:00 +12°C° 0 mm 3 mps 754 mmHg 59%
    21:00 +12°C° 0 mm 3 mps 754 mmHg 61%
    22:00 +11°C° 0 mm 3 mps 754 mmHg 62%
    23:00 +11°C° 0 mm 3 mps 754 mmHg 64%

    23 September, Sunday

    Time Temperature Precipitation Wind Pressure Humidity
    00:00 +10°C° 0 mm 3 mps 754 mmHg 66%
    01:00 +10°C° 0 mm 3 mps 754 mmHg 68%
    02:00 +9°C° 0 mm 3 mps 754 mmHg 70%
    03:00 +9°C° 0 mm 3 mps 754 mmHg 71%
    04:00 +9°C° 0 mm 3 mps 754 mmHg 73%
    05:00 +9°C° 0 mm 3 mps 754 mmHg 71%
    06:00 +9°C° 0 mm 3 mps 753 mmHg 70%
    07:00 +10°C° 0 mm 3 mps 753 mmHg 68%
    08:00 +12°C° 0 mm 3 mps 753 mmHg 62%
    09:00 +13°C° 0 mm 3 mps 753 mmHg 55%
    10:00 +15°C° 0 mm 4 mps 753 mmHg 49%
    11:00 +17°C° 0 mm 4 mps 751 mmHg 46%
    12:00 +17°C° 0 mm 5 mps 750 mmHg 43%
    13:00 +19°C° 0 mm 5 mps 749 mmHg 40%
    14:00 +17°C° 0.3 mm 5 mps 748 mmHg 47%
    15:00 +15°C° 0.3 mm 4 mps 748 mmHg 55%
    16:00 +14°C° 0.3 mm 4 mps 747 mmHg 62%
    17:00 +14°C° 0.4 mm 5 mps 746 mmHg 65%
    18:00 +13°C° 0.4 mm 5 mps 745 mmHg 68%
    19:00 +13°C° 0.4 mm 6 mps 744 mmHg 71%
    20:00 +13°C° 0.3 mm 6 mps 742 mmHg 72%
    21:00 +13°C° 0.3 mm 6 mps 741 mmHg 72%
    22:00 +12°C° 0.3 mm 7 mps 739 mmHg 73%
    23:00 +12°C° 2.4 mm 7 mps 739 mmHg 75%

    24 September, Monday

    Time Temperature Precipitation Wind Pressure Humidity
    00:00 +12°C° 2.4 mm 7 mps 739 mmHg 77%
    01:00 +12°C° 2.4 mm 7 mps 738 mmHg 79%
    02:00 +12°C° 1.3 mm 7 mps 738 mmHg 79%
    03:00 +13°C° 1.3 mm 6 mps 737 mmHg 79%
    04:00 +11°C° 1.3 mm 6 mps 737 mmHg 79%
    05:00 +11°C° 0.2 mm 6 mps 736 mmHg 77%
    06:00 +11°C° 0.2 mm 7 mps 736 mmHg 76%
    07:00 +10°C° 0.2 mm 7 mps 736 mmHg 74%
    08:00 +11°C° 0.2 mm 8 mps 736 mmHg 72%
    09:00 +12°C° 0.2 mm 8 mps 735 mmHg 70%
    10:00 +13°C° 0.2 mm 9 mps 735 mmHg 69%
    11:00 +13°C° 0.2 mm 9 mps 736 mmHg 69%
    12:00 +13°C° 0.2 mm 8 mps 736 mmHg 69%
    13:00 +13°C° 0.2 mm 8 mps 737 mmHg 68%
    14:00 +12°C° 0.3 mm 8 mps 737 mmHg 70%
    15:00 +12°C° 0.3 mm 8 mps 738 mmHg 72%
    16:00 +11°C° 0.3 mm 9 mps 738 mmHg 74%
    17:00 +10°C° 0.1 mm 8 mps 738 mmHg 74%
    18:00 +10°C° 0.1 mm 8 mps 739 mmHg 75%
    19:00 +10°C° 0.1 mm 7 mps 739 mmHg 76%
    20:00 +10°C° 0.2 mm 7 mps 740 mmHg 78%
    21:00 +10°C° 0.2 mm 8 mps 740 mmHg 80%
    22:00 +10°C° 0.2 mm 8 mps 740 mmHg 83%
    23:00 +9°C° 0.9 mm 8 mps 741 mmHg 84%
    Show more